KAZSAT-2

Last updated on Thu Aug 13 2026 00:02:58 GMT+0000 (Coordinated Universal Time)

1 37749U 11035B 26224.51792789 -.00000215 00000+0 00000+0 0 9991 2 37749 0.0162 110.2993 0001302 100.2606 23.3706 1.00269901 53969
UTC large
Height (km)
Speed (km/s)
/
Latitude / Longitude
Inclination (degrees)
Orbital Period (minutes)
Azimuth
Elevation
Range (km)
Doppler Factor

Next 0 passes for location: London (51.5072 / 0.1276)

No passes found over London.
KAZSAT-2